Time,TemperatureF,DewpointF,PressureIn,WindDirection,WindDirectionDegrees,WindSpeedMPH,WindSpeedGustMPH,Humidity,HourlyPrecipIn,Conditions,Clouds,dailyrainin,SolarRadiationWatts/m^2,SoftwareType,DateUTC
2013-03-08 00:00:00,32.3,28.0,30.04,SSE,165,0.0,0.0,84,0.00,,,0.00,0,Wunderground v.1.15,2013-03-08 08:00:00,
2013-03-08 00:10:00,31.9,27.9,30.04,SSE,165,0.0,0.0,85,0.00,,,0.00,0,Wunderground v.1.15,2013-03-08 08:10:00,
2013-03-08 00:20:00,31.6,27.9,30.04,SSE,165,0.0,0.0,86,0.00,,,0.00,0,Wunderground v.1.15,2013-03-08 08:20:00,
2013-03-08 00:25:00,31.5,27.8,30.04,SSE,165,0.0,0.0,86,0.00,,,0.00,0,Wunderground v.1.15,2013-03-08 08:25:00,
2013-03-08 00:30:00,31.4,27.7,30.04,SSE,165,0.0,0.0,86,0.00,,,0.00,0,Wunderground v.1.15,2013-03-08 08:30:00,
2013-03-08 00:35:00,31.3,27.6,30.04,SSE,165,0.0,0.0,86,0.00,,,0.00,0,Wunderground v.1.15,2013-03-08 08:35:00,
2013-03-08 00:40:00,31.2,27.5,30.04,SSE,165,0.0,0.0,86,0.00,,,0.00,0,Wunderground v.1.15,2013-03-08 08:40:00,
2013-03-08 00:45:00,31.1,27.7,30.04,SSE,165,0.0,0.0,87,0.00,,,0.00,0,Wunderground v.1.15,2013-03-08 08:45:00,
2013-03-08 00:55:00,31.5,28.4,30.04,SSE,164,0.0,0.0,88,0.00,,,0.00,0,Wunderground v.1.15,2013-03-08 08:55:00,
2013-03-08 01:00:00,31.2,27.5,30.04,SSE,164,0.0,0.0,86,0.00,,,0.00,0,Wunderground v.1.15,2013-03-08 09:00:00,
2013-03-08 01:10:00,30.9,27.5,30.04,SSE,164,0.0,0.0,87,0.00,,,0.00,0,Wunderground v.1.15,2013-03-08 09:10:00,
2013-03-08 01:15:00,30.9,27.8,30.04,SSE,164,0.0,0.0,88,0.00,,,0.00,0,Wunderground v.1.15,2013-03-08 09:15:00,
2013-03-08 01:20:00,30.9,27.8,30.04,SSE,164,0.0,0.0,88,0.00,,,0.00,0,Wunderground v.1.15,2013-03-08 09:20:00,
2013-03-08 01:29:00,31.0,27.9,30.04,SSE,165,0.0,0.0,88,0.00,,,0.00,0,Wunderground v.1.15,2013-03-08 09:29:00,
2013-03-08 01:34:00,31.1,28.0,30.04,SSE,165,0.0,0.0,88,0.00,,,0.00,0,Wunderground v.1.15,2013-03-08 09:34:00,
2013-03-08 01:39:00,31.2,28.1,30.04,SSE,165,0.0,0.0,88,0.00,,,0.00,0,Wunderground v.1.15,2013-03-08 09:39:00,
2013-03-08 01:45:00,31.1,28.0,30.04,SSE,165,0.0,0.0,88,0.00,,,0.00,0,Wunderground v.1.15,2013-03-08 09:45:00,
2013-03-08 01:50:00,31.0,27.9,30.04,SSE,165,0.0,0.0,88,0.00,,,0.00,0,Wunderground v.1.15,2013-03-08 09:50:00,
2013-03-08 01:55:00,30.8,27.4,30.04,SSE,165,0.0,0.0,87,0.00,,,0.00,0,Wunderground v.1.15,2013-03-08 09:55:00,
2013-03-08 02:00:00,30.6,27.2,30.04,SSE,165,0.0,0.0,87,0.00,,,0.00,0,Wunderground v.1.15,2013-03-08 10:00:00,
2013-03-08 02:10:00,30.4,27.3,30.04,SSE,165,0.0,0.0,88,0.00,,,0.00,0,Wunderground v.1.15,2013-03-08 10:10:00,
2013-03-08 02:15:00,30.6,27.2,30.04,SSE,165,0.0,0.0,87,0.00,,,0.00,0,Wunderground v.1.15,2013-03-08 10:15:00,
2013-03-08 02:20:00,30.4,27.3,30.04,SSE,165,0.0,0.0,88,0.00,,,0.00,0,Wunderground v.1.15,2013-03-08 10:20:00,
2013-03-08 02:30:00,30.2,27.1,30.04,SSE,165,0.0,0.0,88,0.00,,,0.00,0,Wunderground v.1.15,2013-03-08 10:30:00,
2013-03-08 02:35:00,30.1,27.3,30.03,SSE,165,0.0,0.0,89,0.00,,,0.00,0,Wunderground v.1.15,2013-03-08 10:35:00,
2013-03-08 02:40:00,30.1,27.3,30.03,SSE,165,0.0,0.0,89,0.00,,,0.00,0,Wunderground v.1.15,2013-03-08 10:40:00,
2013-03-08 02:45:00,30.2,27.3,30.03,SSE,165,0.0,0.0,89,0.00,,,0.00,0,Wunderground v.1.15,2013-03-08 10:45:00,
2013-03-08 02:50:00,30.2,27.6,30.04,SSE,165,0.0,0.0,90,0.00,,,0.00,0,Wunderground v.1.15,2013-03-08 10:50:00,
2013-03-08 03:00:00,30.4,27.8,30.03,SSE,165,0.0,0.0,90,0.00,,,0.00,0,Wunderground v.1.15,2013-03-08 11:00:00,
2013-03-08 03:10:00,30.5,27.9,30.03,SSE,165,0.0,0.0,90,0.00,,,0.00,0,Wunderground v.1.15,2013-03-08 11:10:00,
2013-03-08 03:15:00,30.6,28.0,30.03,SSE,165,0.0,0.0,90,0.00,,,0.00,0,Wunderground v.1.15,2013-03-08 11:15:00,
2013-03-08 03:20:00,30.6,28.0,30.03,SSE,165,0.0,0.0,90,0.00,,,0.00,0,Wunderground v.1.15,2013-03-08 11:20:00,
2013-03-08 03:25:00,30.6,27.7,30.03,SSE,164,0.0,0.0,89,0.00,,,0.00,0,Wunderground v.1.15,2013-03-08 11:25:00,
2013-03-08 03:35:00,30.5,27.6,30.03,SSE,165,0.0,0.0,89,0.00,,,0.00,0,Wunderground v.1.15,2013-03-08 11:35:00,
2013-03-08 03:40:00,30.4,27.5,30.03,SSE,165,0.0,0.0,89,0.00,,,0.00,0,Wunderground v.1.15,2013-03-08 11:40:00,
2013-03-08 03:45:00,30.3,27.4,30.03,SSE,165,0.0,0.0,89,0.00,,,0.00,0,Wunderground v.1.15,2013-03-08 11:45:00,
2013-03-08 03:50:00,30.0,27.2,30.03,SSE,165,0.0,0.0,89,0.00,,,0.00,0,Wunderground v.1.15,2013-03-08 11:50:00,
2013-03-08 03:55:00,29.8,27.0,30.03,South,169,0.0,0.0,89,0.00,,,0.00,0,Wunderground v.1.15,2013-03-08 11:55:00,
2013-03-08 04:00:00,29.5,26.7,30.03,South,169,0.0,0.0,89,0.00,,,0.00,0,Wunderground v.1.15,2013-03-08 12:00:00,
2013-03-08 04:10:00,29.1,26.3,30.03,South,169,0.0,0.0,89,0.00,,,0.00,0,Wunderground v.1.15,2013-03-08 12:10:00,
2013-03-08 04:15:00,28.9,26.3,30.03,SSW,193,0.0,0.0,90,0.00,,,0.00,0,Wunderground v.1.15,2013-03-08 12:15:00,
2013-03-08 04:20:00,28.8,26.2,30.03,SSW,193,0.0,0.0,90,0.00,,,0.00,0,Wunderground v.1.15,2013-03-08 12:20:00,
2013-03-08 04:25:00,28.7,26.1,30.03,SSW,193,0.0,0.0,90,0.00,,,0.00,0,Wunderground v.1.15,2013-03-08 12:25:00,
2013-03-08 04:30:00,28.6,26.0,30.03,SSW,193,0.0,0.0,90,0.00,,,0.00,0,Wunderground v.1.15,2013-03-08 12:30:00,
2013-03-08 04:40:00,28.5,25.9,30.04,SSW,193,0.0,0.0,90,0.00,,,0.00,0,Wunderground v.1.15,2013-03-08 12:40:00,
2013-03-08 04:45:00,28.4,25.8,30.04,SSW,193,0.0,0.0,90,0.00,,,0.00,0,Wunderground v.1.15,2013-03-08 12:45:00,
2013-03-08 04:50:00,28.3,25.7,30.04,SSW,193,0.0,0.0,90,0.00,,,0.00,0,Wunderground v.1.15,2013-03-08 12:50:00,
2013-03-08 04:55:00,28.3,25.7,30.04,SSW,193,0.0,0.0,90,0.00,,,0.00,0,Wunderground v.1.15,2013-03-08 12:55:00,
2013-03-08 05:00:00,28.2,25.6,30.04,SSW,193,0.0,0.0,90,0.00,,,0.00,0,Wunderground v.1.15,2013-03-08 13:00:00,
2013-03-08 05:10:00,28.2,25.6,30.04,SSW,193,0.0,0.0,90,0.00,,,0.00,0,Wunderground v.1.15,2013-03-08 13:10:00,
2013-03-08 05:15:00,28.2,25.9,30.04,SSW,193,0.0,0.0,91,0.00,,,0.00,0,Wunderground v.1.15,2013-03-08 13:15:00,
2013-03-08 05:20:00,28.3,26.0,30.04,SSW,193,0.0,0.0,91,0.00,,,0.00,0,Wunderground v.1.15,2013-03-08 13:20:00,
2013-03-08 05:25:00,28.3,26.0,30.04,SSW,193,0.0,0.0,91,0.00,,,0.00,0,Wunderground v.1.15,2013-03-08 13:25:00,
2013-03-08 05:30:00,28.3,26.0,30.04,SSW,194,0.0,0.0,91,0.00,,,0.00,0,Wunderground v.1.15,2013-03-08 13:30:00,
2013-03-08 05:35:00,28.3,26.0,30.04,SSW,196,0.0,0.0,91,0.00,,,0.00,0,Wunderground v.1.15,2013-03-08 13:35:00,
2013-03-08 05:45:00,28.4,26.1,30.04,SSW,196,0.0,0.0,91,0.00,,,0.00,0,Wunderground v.1.15,2013-03-08 13:45:00,
2013-03-08 05:50:00,28.6,26.3,30.05,SSW,196,0.0,0.0,91,0.00,,,0.00,0,Wunderground v.1.15,2013-03-08 13:50:00,
2013-03-08 05:55:00,28.9,26.6,30.05,SSW,196,0.0,0.0,91,0.00,,,0.00,0,Wunderground v.1.15,2013-03-08 13:55:00,
2013-03-08 06:00:00,29.1,26.8,30.05,SSW,196,0.0,0.0,91,0.00,,,0.00,0,Wunderground v.1.15,2013-03-08 14:00:00,
2013-03-08 06:10:00,29.2,26.9,30.05,SSW,196,0.0,0.0,91,0.00,,,0.00,0,Wunderground v.1.15,2013-03-08 14:10:00,
2013-03-08 06:15:00,29.2,26.9,30.05,SSW,196,0.0,0.0,91,0.00,,,0.00,0,Wunderground v.1.15,2013-03-08 14:15:00,
2013-03-08 06:20:00,29.3,27.3,30.05,SSW,196,0.0,0.0,92,0.00,,,0.00,0,Wunderground v.1.15,2013-03-08 14:20:00,
2013-03-08 06:25:00,29.3,27.0,30.05,SSW,196,0.0,0.0,91,0.00,,,0.00,0,Wunderground v.1.15,2013-03-08 14:25:00,
2013-03-08 06:30:00,29.3,27.0,30.05,SSW,196,0.0,0.0,91,0.00,,,0.00,0,Wunderground v.1.15,2013-03-08 14:30:00,
2013-03-08 06:35:00,29.3,27.0,30.05,SSW,196,0.0,0.0,91,0.00,,,0.00,9,Wunderground v.1.15,2013-03-08 14:35:00,
2013-03-08 06:40:00,29.5,27.5,30.05,SSW,196,0.0,0.0,92,0.00,,,0.00,12,Wunderground v.1.15,2013-03-08 14:40:00,
2013-03-08 06:50:00,29.4,27.1,30.05,SSW,196,0.0,0.0,91,0.00,,,0.00,18,Wunderground v.1.15,2013-03-08 14:50:00,
2013-03-08 06:55:00,29.3,27.0,30.05,SSW,196,0.0,0.0,91,0.00,,,0.00,18,Wunderground v.1.15,2013-03-08 14:55:00,
2013-03-08 07:00:00,29.3,27.3,30.05,SSW,196,0.0,0.0,92,0.00,,,0.00,25,Wunderground v.1.15,2013-03-08 15:00:00,
2013-03-08 07:10:00,29.3,27.0,30.05,SSW,196,0.0,0.0,91,0.00,,,0.00,42,Wunderground v.1.15,2013-03-08 15:10:00,
2013-03-08 07:20:00,29.5,27.5,30.05,SSW,212,0.0,0.0,92,0.00,,,0.00,65,Wunderground v.1.15,2013-03-08 15:20:00,
2013-03-08 07:25:00,29.6,27.6,30.05,SSW,212,0.0,0.0,92,0.00,,,0.00,72,Wunderground v.1.15,2013-03-08 15:25:00,
2013-03-08 07:30:00,30.3,28.3,30.05,SSW,210,0.0,0.0,92,0.00,,,0.00,77,Wunderground v.1.15,2013-03-08 15:30:00,
2013-03-08 07:35:00,31.0,28.4,30.06,SSW,210,0.0,0.0,90,0.00,,,0.00,86,Wunderground v.1.15,2013-03-08 15:35:00,
2013-03-08 07:40:00,31.2,28.6,30.06,SSW,210,0.0,0.0,90,0.00,,,0.00,95,Wunderground v.1.15,2013-03-08 15:40:00,
2013-03-08 07:45:00,31.2,28.3,30.06,SSW,210,0.0,0.0,89,0.00,,,0.00,97,Wunderground v.1.15,2013-03-08 15:45:00,
2013-03-08 07:55:00,31.6,28.5,30.06,SSW,210,0.0,0.0,88,0.00,,,0.00,100,Wunderground v.1.15,2013-03-08 15:55:00,
2013-03-08 08:00:00,31.4,28.3,30.05,SSW,211,0.0,0.0,88,0.00,,,0.00,109,Wunderground v.1.15,2013-03-08 16:00:00,
2013-03-08 08:10:00,31.3,28.4,30.05,SSW,211,0.0,0.0,89,0.00,,,0.00,209,Wunderground v.1.15,2013-03-08 16:10:00,
2013-03-08 08:15:00,31.4,28.8,30.06,SW,217,0.0,0.0,90,0.00,,,0.00,330,Wunderground v.1.15,2013-03-08 16:15:00,
2013-03-08 08:25:00,32.3,30.0,30.06,SW,219,0.0,0.0,91,0.00,,,0.00,496,Wunderground v.1.15,2013-03-08 16:25:00,
2013-03-08 08:30:00,32.8,30.2,30.06,WSW,248,0.0,0.0,90,0.00,,,0.00,496,Wunderground v.1.15,2013-03-08 16:30:00,
2013-03-08 08:35:00,33.4,30.5,30.06,WSW,249,0.0,0.0,89,0.00,,,0.00,464,Wunderground v.1.15,2013-03-08 16:35:00,
2013-03-08 08:40:00,34.3,30.8,30.06,WSW,249,0.0,0.0,87,0.00,,,0.00,455,Wunderground v.1.15,2013-03-08 16:40:00,
2013-03-08 08:45:00,35.1,31.3,30.06,WSW,250,0.0,0.0,86,0.00,,,0.00,373,Wunderground v.1.15,2013-03-08 16:45:00,
2013-03-08 08:50:00,35.5,30.8,30.06,WSW,250,0.0,0.0,83,0.00,,,0.00,417,Wunderground v.1.15,2013-03-08 16:50:00,
2013-03-08 09:00:00,36.2,30.9,30.06,WSW,250,0.0,0.0,81,0.00,,,0.00,380,Wunderground v.1.15,2013-03-08 17:00:00,
2013-03-08 09:10:00,36.6,30.7,30.06,WSW,250,0.0,0.0,79,0.00,,,0.00,127,Wunderground v.1.15,2013-03-08 17:10:00,
2013-03-08 09:15:00,36.6,30.4,30.07,WSW,250,0.0,0.0,78,0.00,,,0.00,165,Wunderground v.1.15,2013-03-08 17:15:00,
2013-03-08 09:20:00,36.6,31.0,30.07,WSW,258,0.0,1.0,80,0.00,,,0.00,192,Wunderground v.1.15,2013-03-08 17:20:00,
2013-03-08 09:30:00,36.0,30.7,30.07,WNW,289,1.0,1.0,81,0.00,,,0.00,510,Wunderground v.1.15,2013-03-08 17:30:00,
2013-03-08 09:35:00,36.4,31.1,30.07,NW,309,1.0,3.0,81,0.00,,,0.00,527,Wunderground v.1.15,2013-03-08 17:35:00,
2013-03-08 09:40:00,36.7,31.1,30.07,NW,304,1.0,1.0,80,0.00,,,0.00,438,Wunderground v.1.15,2013-03-08 17:40:00,
2013-03-08 09:45:00,36.9,31.3,30.07,NW,305,1.0,1.0,80,0.00,,,0.00,531,Wunderground v.1.15,2013-03-08 17:45:00,
2013-03-08 09:50:00,37.3,31.7,30.07,NW,304,0.0,0.0,80,0.00,,,0.00,301,Wunderground v.1.15,2013-03-08 17:50:00,
2013-03-08 09:55:00,37.4,31.2,30.07,NW,305,0.0,0.0,78,0.00,,,0.00,350,Wunderground v.1.15,2013-03-08 17:55:00,
2013-03-08 10:00:00,37.4,30.8,30.07,NW,304,0.0,0.0,77,0.00,,,0.00,283,Wunderground v.1.15,2013-03-08 18:00:00,
2013-03-08 10:10:00,37.6,31.0,30.07,NW,321,0.0,0.0,77,0.00,,,0.00,323,Wunderground v.1.15,2013-03-08 18:10:00,
2013-03-08 10:15:00,37.7,31.5,30.07,NW,307,0.0,0.0,78,0.00,,,0.00,541,Wunderground v.1.15,2013-03-08 18:15:00,
2013-03-08 10:20:00,38.1,31.5,30.07,NW,307,0.0,0.0,77,0.00,,,0.00,722,Wunderground v.1.15,2013-03-08 18:20:00,
2013-03-08 10:25:00,38.6,31.4,30.07,SSW,193,0.0,0.0,75,0.00,,,0.00,700,Wunderground v.1.15,2013-03-08 18:25:00,
2013-03-08 10:35:00,39.1,31.5,30.07,NNE,13,0.0,2.0,74,0.00,,,0.00,708,Wunderground v.1.15,2013-03-08 18:35:00,
2013-03-08 10:40:00,39.4,31.5,30.07,NNE,13,0.0,0.0,73,0.00,,,0.00,476,Wunderground v.1.15,2013-03-08 18:40:00,
2013-03-08 10:45:00,39.6,31.7,30.07,North,9,1.0,2.0,73,0.00,,,0.00,283,Wunderground v.1.15,2013-03-08 18:45:00,
2013-03-08 10:50:00,39.6,31.3,30.07,NNE,29,1.0,3.0,72,0.00,,,0.00,360,Wunderground v.1.15,2013-03-08 18:50:00,
2013-03-08 10:55:00,39.9,31.6,30.07,NE,34,1.0,3.0,72,0.00,,,0.00,786,Wunderground v.1.15,2013-03-08 18:55:00,
2013-03-08 11:00:00,40.6,31.9,30.07,NW,320,0.0,0.0,71,0.00,,,0.00,547,Wunderground v.1.15,2013-03-08 19:00:00,
2013-03-08 11:10:00,40.9,31.1,30.07,NNE,31,1.0,1.0,68,0.00,,,0.00,780,Wunderground v.1.15,2013-03-08 19:10:00,
2013-03-08 11:15:00,41.4,31.3,30.07,East,92,2.0,6.0,67,0.00,,,0.00,812,Wunderground v.1.15,2013-03-08 19:15:00,
2013-03-08 11:19:00,40.9,30.4,30.07,SE,141,2.0,2.0,66,0.00,,,0.00,158,Wunderground v.1.15,2013-03-08 19:19:00,
2013-03-08 11:25:00,41.1,31.0,30.07,East,82,2.0,2.0,67,0.00,,,0.00,805,Wunderground v.1.15,2013-03-08 19:25:00,
2013-03-08 11:30:00,41.8,30.9,30.07,ESE,117,2.0,2.0,65,0.00,,,0.00,805,Wunderground v.1.15,2013-03-08 19:30:00,
2013-03-08 11:35:00,41.6,30.3,30.07,ESE,105,3.0,3.0,64,0.00,,,0.00,809,Wunderground v.1.15,2013-03-08 19:35:00,
2013-03-08 11:40:00,41.9,31.0,30.07,ESE,117,2.0,7.0,65,0.00,,,0.00,779,Wunderground v.1.15,2013-03-08 19:40:00,
2013-03-08 11:45:00,42.0,30.7,30.07,East,84,3.0,7.0,64,0.00,,,0.00,788,Wunderground v.1.15,2013-03-08 19:45:00,
2013-03-08 11:50:00,41.8,29.7,30.07,East,84,3.0,3.0,62,0.00,,,0.00,775,Wunderground v.1.15,2013-03-08 19:50:00,
2013-03-08 11:55:00,42.4,30.7,30.06,East,90,1.0,3.0,63,0.00,,,0.00,775,Wunderground v.1.15,2013-03-08 19:55:00,
2013-03-08 12:00:00,43.3,30.7,30.06,ENE,63,2.0,2.0,61,0.00,,,0.00,773,Wunderground v.1.15,2013-03-08 20:00:00,
2013-03-08 12:10:00,43.3,30.7,30.06,ENE,61,1.0,1.0,61,0.00,,,0.00,772,Wunderground v.1.15,2013-03-08 20:10:00,
2013-03-08 12:15:00,43.3,30.3,30.06,SSE,157,1.0,1.0,60,0.00,,,0.00,772,Wunderground v.1.15,2013-03-08 20:15:00,
2013-03-08 12:20:00,43.3,30.7,30.06,SE,144,1.0,5.0,61,0.00,,,0.00,773,Wunderground v.1.15,2013-03-08 20:20:00,
2013-03-08 12:25:00,43.4,30.0,30.06,ESE,117,3.0,5.0,59,0.00,,,0.00,773,Wunderground v.1.15,2013-03-08 20:25:00,
2013-03-08 12:30:00,43.8,30.8,30.06,SE,139,3.0,6.0,60,0.00,,,0.00,775,Wunderground v.1.15,2013-03-08 20:30:00,
2013-03-08 12:35:00,44.2,30.3,30.06,SE,142,4.0,8.0,58,0.00,,,0.00,765,Wunderground v.1.15,2013-03-08 20:35:00,
2013-03-08 12:45:00,43.7,29.5,30.06,ESE,115,2.0,4.0,57,0.00,,,0.00,765,Wunderground v.1.15,2013-03-08 20:45:00,
2013-03-08 12:50:00,44.1,29.8,30.05,South,187,3.0,6.0,57,0.00,,,0.00,768,Wunderground v.1.15,2013-03-08 20:50:00,
2013-03-08 12:55:00,44.5,30.2,30.05,SSE,149,3.0,6.0,57,0.00,,,0.00,775,Wunderground v.1.15,2013-03-08 20:55:00,
2013-03-08 13:00:00,44.3,30.4,30.05,SE,140,2.0,4.0,58,0.00,,,0.00,756,Wunderground v.1.15,2013-03-08 21:00:00,
2013-03-08 13:10:00,45.1,30.8,30.05,SSE,148,3.0,3.0,57,0.00,,,0.00,751,Wunderground v.1.15,2013-03-08 21:10:00,
2013-03-08 13:15:00,44.9,31.0,30.05,SE,130,2.0,3.0,58,0.00,,,0.00,765,Wunderground v.1.15,2013-03-08 21:15:00,
2013-03-08 13:20:00,44.9,30.6,30.05,South,185,2.0,2.0,57,0.00,,,0.00,754,Wunderground v.1.15,2013-03-08 21:20:00,
2013-03-08 13:25:00,45.6,30.8,30.05,SSE,160,3.0,3.0,56,0.00,,,0.00,759,Wunderground v.1.15,2013-03-08 21:25:00,
2013-03-08 13:30:00,45.8,31.0,30.05,SSE,150,3.0,3.0,56,0.00,,,0.00,795,Wunderground v.1.15,2013-03-08 21:30:00,
2013-03-08 13:35:00,45.6,30.8,30.05,ESE,105,3.0,3.0,56,0.00,,,0.00,137,Wunderground v.1.15,2013-03-08 21:35:00,
2013-03-08 13:40:00,45.5,31.1,30.05,ESE,109,3.0,4.0,57,0.00,,,0.00,773,Wunderground v.1.15,2013-03-08 21:40:00,
2013-03-08 13:50:00,46.3,31.4,30.05,East,80,3.0,3.0,56,0.00,,,0.00,837,Wunderground v.1.15,2013-03-08 21:50:00,
2013-03-08 13:55:00,46.8,32.8,30.04,SE,132,3.0,3.0,58,0.00,,,0.00,529,Wunderground v.1.15,2013-03-08 21:55:00,
2013-03-08 14:00:00,46.3,30.1,30.04,South,175,3.0,3.0,53,0.00,,,0.00,174,Wunderground v.1.15,2013-03-08 22:00:00,
2013-03-08 14:10:00,46.0,31.2,30.04,SE,142,2.0,2.0,56,0.00,,,0.00,698,Wunderground v.1.15,2013-03-08 22:10:00,
2013-03-08 14:20:00,46.4,30.6,30.04,South,177,4.0,4.0,54,0.00,,,0.00,682,Wunderground v.1.15,2013-03-08 22:20:00,
2013-03-08 14:25:00,46.6,30.4,30.05,SSE,165,3.0,4.0,53,0.00,,,0.00,659,Wunderground v.1.15,2013-03-08 22:25:00,
2013-03-08 14:30:00,46.8,31.0,30.04,SE,132,3.0,3.0,54,0.00,,,0.00,673,Wunderground v.1.15,2013-03-08 22:30:00,
2013-03-08 14:35:00,46.8,30.6,30.04,SE,132,3.0,11.0,53,0.00,,,0.00,156,Wunderground v.1.15,2013-03-08 22:35:00,
2013-03-08 14:40:00,46.9,29.7,30.05,SE,142,5.0,7.0,51,0.00,,,0.00,643,Wunderground v.1.15,2013-03-08 22:40:00,
2013-03-08 14:45:00,47.1,29.9,30.04,SE,127,6.0,7.0,51,0.00,,,0.00,626,Wunderground v.1.15,2013-03-08 22:45:00,
2013-03-08 14:55:00,47.2,30.0,30.04,ESE,120,3.0,4.0,51,0.00,,,0.00,605,Wunderground v.1.15,2013-03-08 22:55:00,
2013-03-08 15:00:00,47.2,29.5,30.04,East,90,4.0,8.0,50,0.00,,,0.00,243,Wunderground v.1.15,2013-03-08 23:00:00,
2013-03-08 15:10:00,47.7,30.4,30.04,ESE,113,5.0,12.0,51,0.00,,,0.00,592,Wunderground v.1.15,2013-03-08 23:10:00,
2013-03-08 15:15:00,47.5,28.8,30.05,ESE,111,6.0,12.0,48,0.00,,,0.00,522,Wunderground v.1.15,2013-03-08 23:15:00,
2013-03-08 15:25:00,47.8,29.5,30.04,SE,146,4.0,6.0,49,0.00,,,0.00,489,Wunderground v.1.15,2013-03-08 23:25:00,
2013-03-08 15:30:00,47.9,28.1,30.04,SE,145,3.0,3.0,46,0.00,,,0.00,466,Wunderground v.1.15,2013-03-08 23:30:00,
2013-03-08 15:35:00,47.7,27.9,30.05,SSE,158,3.0,3.0,46,0.00,,,0.00,462,Wunderground v.1.15,2013-03-08 23:35:00,
2013-03-08 15:40:00,47.9,28.1,30.05,SSE,149,3.0,3.0,46,0.00,,,0.00,476,Wunderground v.1.15,2013-03-08 23:40:00,
2013-03-08 15:45:00,48.0,27.6,30.05,ESE,115,4.0,9.0,45,0.00,,,0.00,446,Wunderground v.1.15,2013-03-08 23:45:00,
2013-03-08 15:50:00,48.0,27.6,30.05,ESE,123,5.0,5.0,45,0.00,,,0.00,427,Wunderground v.1.15,2013-03-08 23:50:00,
2013-03-08 16:00:00,48.1,28.3,30.05,SE,144,5.0,7.0,46,0.00,,,0.00,72,Wunderground v.1.15,2013-03-09 00:00:00,
2013-03-08 16:10:00,47.7,28.4,30.05,SE,138,5.0,5.0,47,0.00,,,0.00,279,Wunderground v.1.15,2013-03-09 00:10:00,
2013-03-08 16:15:00,47.9,28.6,30.05,SE,134,4.0,5.0,47,0.00,,,0.00,322,Wunderground v.1.15,2013-03-09 00:15:00,
2013-03-08 16:20:00,47.9,28.1,30.05,SE,141,4.0,12.0,46,0.00,,,0.00,332,Wunderground v.1.15,2013-03-09 00:20:00,
2013-03-08 16:30:00,47.4,28.2,30.05,SE,140,8.0,11.0,47,0.00,,,0.00,285,Wunderground v.1.15,2013-03-09 00:30:00,
2013-03-08 16:35:00,47.2,28.0,30.05,SE,136,8.0,11.0,47,0.00,,,0.00,257,Wunderground v.1.15,2013-03-09 00:35:00,
2013-03-08 16:40:00,46.8,26.0,30.06,SSE,148,8.0,8.0,44,0.00,,,0.00,44,Wunderground v.1.15,2013-03-09 00:40:00,
2013-03-08 16:45:00,46.2,26.5,30.06,SE,125,7.0,8.0,46,0.00,,,0.00,40,Wunderground v.1.15,2013-03-09 00:45:00,
2013-03-08 16:50:00,46.1,28.0,30.06,SSE,147,5.0,9.0,49,0.00,,,0.00,107,Wunderground v.1.15,2013-03-09 00:50:00,
2013-03-08 16:55:00,45.9,27.8,30.06,SSE,155,5.0,9.0,49,0.00,,,0.00,37,Wunderground v.1.15,2013-03-09 00:55:00,
2013-03-08 17:00:00,45.6,27.0,30.06,SE,133,5.0,5.0,48,0.00,,,0.00,35,Wunderground v.1.15,2013-03-09 01:00:00,
2013-03-08 17:10:00,45.5,26.4,30.07,SSE,157,3.0,3.0,47,0.00,,,0.00,100,Wunderground v.1.15,2013-03-09 01:10:00,
2013-03-08 17:15:00,45.6,26.5,30.07,ESE,122,2.0,5.0,47,0.00,,,0.00,51,Wunderground v.1.15,2013-03-09 01:15:00,
2013-03-08 17:20:00,45.7,26.6,30.07,SE,141,3.0,7.0,47,0.00,,,0.00,74,Wunderground v.1.15,2013-03-09 01:20:00,
2013-03-08 17:25:00,45.8,26.7,30.08,SSE,147,5.0,7.0,47,0.00,,,0.00,53,Wunderground v.1.15,2013-03-09 01:25:00,
2013-03-08 17:35:00,45.5,26.4,30.08,SSE,160,3.0,7.0,47,0.00,,,0.00,19,Wunderground v.1.15,2013-03-09 01:35:00,
2013-03-08 17:40:00,45.3,25.7,30.08,SSE,153,3.0,3.0,46,0.00,,,0.00,18,Wunderground v.1.15,2013-03-09 01:40:00,
2013-03-08 17:45:00,45.1,26.1,30.08,SSE,155,2.0,3.0,47,0.00,,,0.00,16,Wunderground v.1.15,2013-03-09 01:45:00,
2013-03-08 17:50:00,45.0,26.0,30.09,SSE,167,1.0,1.0,47,0.00,,,0.00,12,Wunderground v.1.15,2013-03-09 01:50:00,
2013-03-08 17:55:00,44.8,25.8,30.09,SSE,156,0.0,1.0,47,0.00,,,0.00,9,Wunderground v.1.15,2013-03-09 01:55:00,
2013-03-08 18:00:00,44.5,26.0,30.09,SSE,162,0.0,0.0,48,0.00,,,0.00,7,Wunderground v.1.15,2013-03-09 02:00:00,
2013-03-08 18:10:00,44.1,26.1,30.10,SSE,155,1.0,1.0,49,0.00,,,0.00,0,Wunderground v.1.15,2013-03-09 02:10:00,
2013-03-08 18:15:00,43.7,26.3,30.10,SSE,148,0.0,1.0,50,0.00,,,0.00,0,Wunderground v.1.15,2013-03-09 02:15:00,
2013-03-08 18:20:00,43.6,26.2,30.11,SSE,147,1.0,1.0,50,0.00,,,0.00,0,Wunderground v.1.15,2013-03-09 02:20:00,
2013-03-08 18:25:00,43.4,26.5,30.11,SSE,156,1.0,2.0,51,0.00,,,0.00,0,Wunderground v.1.15,2013-03-09 02:25:00,
2013-03-08 18:30:00,43.4,26.9,30.11,SSE,154,2.0,2.0,52,0.00,,,0.00,0,Wunderground v.1.15,2013-03-09 02:30:00,
2013-03-08 18:40:00,43.0,26.6,30.12,SE,140,3.0,3.0,52,0.00,,,0.00,0,Wunderground v.1.15,2013-03-09 02:40:00,
2013-03-08 18:45:00,42.8,26.4,30.12,SE,138,3.0,4.0,52,0.00,,,0.00,0,Wunderground v.1.15,2013-03-09 02:45:00,
2013-03-08 18:50:00,42.8,26.4,30.12,SE,146,2.0,5.0,52,0.00,,,0.00,0,Wunderground v.1.15,2013-03-09 02:50:00,
2013-03-08 18:55:00,42.5,26.6,30.12,SSE,153,2.0,5.0,53,0.00,,,0.00,0,Wunderground v.1.15,2013-03-09 02:55:00,
2013-03-08 19:00:00,42.2,26.3,30.12,SSE,152,2.0,2.0,53,0.00,,,0.00,0,Wunderground v.1.15,2013-03-09 03:00:00,
2013-03-08 19:10:00,41.9,26.0,30.13,SE,145,2.0,2.0,53,0.00,,,0.00,0,Wunderground v.1.15,2013-03-09 03:10:00,
2013-03-08 19:15:00,41.5,26.1,30.13,SE,132,1.0,5.0,54,0.00,,,0.00,0,Wunderground v.1.15,2013-03-09 03:15:00,
2013-03-08 19:20:00,41.4,26.0,30.13,SE,144,2.0,2.0,54,0.00,,,0.00,0,Wunderground v.1.15,2013-03-09 03:20:00,
2013-03-08 19:25:00,41.2,25.8,30.13,SE,138,2.0,2.0,54,0.00,,,0.00,0,Wunderground v.1.15,2013-03-09 03:25:00,
2013-03-08 19:30:00,41.1,25.3,30.14,SE,129,1.0,4.0,53,0.00,,,0.00,0,Wunderground v.1.15,2013-03-09 03:30:00,
2013-03-08 19:35:00,41.0,25.2,30.14,SE,130,1.0,4.0,53,0.00,,,0.00,0,Wunderground v.1.15,2013-03-09 03:35:00,
2013-03-08 19:45:00,40.2,24.9,30.14,SE,130,0.0,1.0,54,0.00,,,0.00,0,Wunderground v.1.15,2013-03-09 03:45:00,
2013-03-08 19:50:00,39.8,24.5,30.15,SE,130,0.0,0.0,54,0.00,,,0.00,0,Wunderground v.1.15,2013-03-09 03:50:00,
2013-03-08 19:55:00,39.6,24.3,30.15,SE,130,0.0,0.0,54,0.00,,,0.00,0,Wunderground v.1.15,2013-03-09 03:55:00,
2013-03-08 20:00:00,39.3,24.9,30.15,SE,130,0.0,0.0,56,0.00,,,0.00,0,Wunderground v.1.15,2013-03-09 04:00:00,
2013-03-08 20:10:00,38.5,25.0,30.15,SE,129,0.0,0.0,58,0.00,,,0.00,0,Wunderground v.1.15,2013-03-09 04:10:00,
2013-03-08 20:20:00,38.2,24.7,30.16,SE,129,0.0,0.0,58,0.00,,,0.00,0,Wunderground v.1.15,2013-03-09 04:20:00,
2013-03-08 20:25:00,38.0,24.9,30.16,SE,129,0.0,0.0,59,0.00,,,0.00,0,Wunderground v.1.15,2013-03-09 04:25:00,
2013-03-08 20:30:00,37.9,24.8,30.16,SE,129,0.0,0.0,59,0.00,,,0.00,0,Wunderground v.1.15,2013-03-09 04:30:00,
2013-03-08 20:35:00,37.8,24.7,30.16,SE,129,0.0,0.0,59,0.00,,,0.00,0,Wunderground v.1.15,2013-03-09 04:35:00,
2013-03-08 20:40:00,37.7,24.2,30.16,SE,129,0.0,0.0,58,0.00,,,0.00,0,Wunderground v.1.15,2013-03-09 04:40:00,
2013-03-08 20:45:00,37.7,24.2,30.17,SE,129,0.0,0.0,58,0.00,,,0.00,0,Wunderground v.1.15,2013-03-09 04:45:00,
2013-03-08 20:50:00,37.9,24.4,30.17,SE,129,0.0,0.0,58,0.00,,,0.00,0,Wunderground v.1.15,2013-03-09 04:50:00,
2013-03-08 20:55:00,38.1,24.2,30.17,SE,129,0.0,0.0,57,0.00,,,0.00,0,Wunderground v.1.15,2013-03-09 04:55:00,
2013-03-08 21:00:00,38.1,24.2,30.17,SE,129,0.0,0.0,57,0.00,,,0.00,0,Wunderground v.1.15,2013-03-09 05:00:00,
2013-03-08 21:10:00,37.6,23.7,30.18,SE,129,0.0,0.0,57,0.00,,,0.00,0,Wunderground v.1.15,2013-03-09 05:10:00,
2013-03-08 21:15:00,37.8,23.9,30.18,SE,129,0.0,0.0,57,0.00,,,0.00,0,Wunderground v.1.15,2013-03-09 05:15:00,
2013-03-08 21:25:00,37.7,24.2,30.18,SE,129,0.0,0.0,58,0.00,,,0.00,0,Wunderground v.1.15,2013-03-09 05:25:00,
2013-03-08 21:30:00,37.9,24.8,30.18,SE,129,0.0,0.0,59,0.00,,,0.00,0,Wunderground v.1.15,2013-03-09 05:30:00,
2013-03-08 21:35:00,37.8,24.7,30.18,SE,129,0.0,0.0,59,0.00,,,0.00,0,Wunderground v.1.15,2013-03-09 05:35:00,
2013-03-08 21:40:00,37.6,25.0,30.18,SE,129,0.0,0.0,60,0.00,,,0.00,0,Wunderground v.1.15,2013-03-09 05:40:00,
2013-03-08 21:45:00,37.5,24.9,30.19,SE,129,0.0,0.0,60,0.00,,,0.00,0,Wunderground v.1.15,2013-03-09 05:45:00,
2013-03-08 21:50:00,37.2,25.0,30.19,SE,129,0.0,0.0,61,0.00,,,0.00,0,Wunderground v.1.15,2013-03-09 05:50:00,
2013-03-08 21:55:00,36.8,25.0,30.19,SE,129,0.0,0.0,62,0.00,,,0.00,0,Wunderground v.1.15,2013-03-09 05:55:00,
2013-03-08 22:05:00,36.1,25.1,30.19,SE,129,0.0,0.0,64,0.00,,,0.00,0,Wunderground v.1.15,2013-03-09 06:05:00,
2013-03-08 22:10:00,35.6,24.6,30.20,SE,129,0.0,0.0,64,0.00,,,0.00,0,Wunderground v.1.15,2013-03-09 06:10:00,
2013-03-08 22:15:00,35.2,24.6,30.19,SE,129,0.0,0.0,65,0.00,,,0.00,0,Wunderground v.1.15,2013-03-09 06:15:00,
2013-03-08 22:20:00,34.7,24.5,30.19,SE,129,0.0,0.0,66,0.00,,,0.00,0,Wunderground v.1.15,2013-03-09 06:20:00,
2013-03-08 22:25:00,34.2,24.7,30.20,SE,129,0.0,0.0,68,0.00,,,0.00,0,Wunderground v.1.15,2013-03-09 06:25:00,
2013-03-08 22:30:00,33.8,24.4,30.20,SE,129,0.0,0.0,68,0.00,,,0.00,0,Wunderground v.1.15,2013-03-09 06:30:00,
2013-03-08 22:35:00,33.4,24.3,30.20,SE,129,0.0,0.0,69,0.00,,,0.00,0,Wunderground v.1.15,2013-03-09 06:35:00,
2013-03-08 22:40:00,33.1,24.0,30.20,SE,129,0.0,0.0,69,0.00,,,0.00,0,Wunderground v.1.15,2013-03-09 06:40:00,
2013-03-08 22:45:00,32.9,24.2,30.20,SE,129,0.0,0.0,70,0.00,,,0.00,0,Wunderground v.1.15,2013-03-09 06:45:00,
2013-03-08 22:50:00,32.5,23.8,30.20,SE,129,0.0,0.0,70,0.00,,,0.00,0,Wunderground v.1.15,2013-03-09 06:50:00,
2013-03-08 23:00:00,32.1,24.1,30.20,SE,129,0.0,0.0,72,0.00,,,0.00,0,Wunderground v.1.15,2013-03-09 07:00:00,
2013-03-08 23:10:00,31.8,24.1,30.21,SE,129,0.0,0.0,73,0.00,,,0.00,0,Wunderground v.1.15,2013-03-09 07:10:00,
2013-03-08 23:15:00,31.7,23.7,30.21,SE,129,0.0,0.0,72,0.00,,,0.00,0,Wunderground v.1.15,2013-03-09 07:15:00,
2013-03-08 23:20:00,31.7,23.7,30.21,SE,129,0.0,0.0,72,0.00,,,0.00,0,Wunderground v.1.15,2013-03-09 07:20:00,
2013-03-08 23:30:00,31.6,23.6,30.22,SE,129,0.0,0.0,72,0.00,,,0.00,0,Wunderground v.1.15,2013-03-09 07:30:00,
2013-03-08 23:35:00,31.4,23.4,30.22,SE,129,0.0,0.0,72,0.00,,,0.00,0,Wunderground v.1.15,2013-03-09 07:35:00,
2013-03-08 23:40:00,31.3,24.0,30.22,SE,129,0.0,0.0,74,0.00,,,0.00,0,Wunderground v.1.15,2013-03-09 07:40:00,
2013-03-08 23:45:00,31.2,23.9,30.22,SE,129,0.0,0.0,74,0.00,,,0.00,0,Wunderground v.1.15,2013-03-09 07:45:00,
2013-03-08 23:50:00,31.2,24.2,30.22,SE,129,0.0,0.0,75,0.00,,,0.00,0,Wunderground v.1.15,2013-03-09 07:50:00,
2013-03-08 23:55:00,31.1,24.1,30.22,SE,129,0.0,0.0,75,0.00,,,0.00,0,Wunderground v.1.15,2013-03-09 07:55:00,